Back to catalog

COSMOS 1375 DEB

AliveLEO
NORAD 27803·DEBRIS·🇷🇺 Russia

Launched Jun 6, 1982 from Plesetsk Cosmodrome

Loading…

Next Passes (next 24 hours)

TLE

FreshSource: Space-Track

Epoch: Sep 13, 2026, 01:25 UTC

1 27803U 82055BQ  26256.05957733  .00000764  00000-0  52744-3 0  9992
2 27803  65.8121 243.5477 0023012   1.7525  60.9994 14.04951814804360

Track COSMOS 1375 DEB in real time with AllMySat

Download on the App Store